Location: High Cliff State Park
(44.1557°N, 88.2948°W)
Time: 23:53:36
(UTC-05:00)

Amateur Radio Satellites - All Passes

Search period start: 15 September 2014 23:23
Search period end: 16 September 2014 23:23
Location: High Cliff State Park, 44.1557°N, 88.2948°W

Satellite Date Start Highest point End Downlink Frequencies (MHz)
Time Altitude Azimuth
FUNcube-1 15 Sep 23:35:53 23:38:50 18° 269° (W) 23:41:51 145.950 - 145.970 MHz USB
PCSat 15 Sep 23:37:47 23:42:08 25° 252° (WSW) 23:46:28 145.825 MHz
SO-50 16 Sep 00:14:57 00:19:24 64° 308° (NW) 00:24:00 436.795 FM
KITSAT 1 16 Sep 00:22:33 00:27:21 16° 347° (NNW) 00:32:09 435.175 FM
UOSAT-12 16 Sep 00:36:52 00:40:24 22° 112° (ESE) 00:44:00 437.025 FM, 437.400 FM
Oscar 16 16 Sep 01:33:08 01:37:11 23° 93° (E) 01:41:11 437.025 USB, Beacon 2401.1428
SO-50 16 Sep 01:58:34 02:00:55 14° 329° (NNW) 02:03:18 436.795 FM
ITAMSAT 1 16 Sep 02:08:07 02:11:53 20° 92° (E) 02:15:39 435.822 SSB
Uribyol 2 16 Sep 02:13:07 02:17:17 24° 93° (E) 02:21:25 436.500 FM
UOSAT-12 16 Sep 02:15:43 02:20:14 50° 310° (NW) 02:24:51 437.025 FM, 437.400 FM
AO-Echo 16 Sep 02:19:01 02:23:08 28° 95° (E) 02:27:19 ?
KITSAT 1 16 Sep 02:21:29 02:26:37 18° 18° (NNE) 02:31:45 435.175 FM
Saudisat 1A 16 Sep 02:23:33 02:27:43 39° 47° (NE) 02:31:51 436.775 MHz
Oscar 19 16 Sep 02:33:30 02:38:42 77° 103° (ESE) 02:43:51 437.125 CW, 437.150 USB
AO-27 16 Sep 02:41:13 02:46:08 40° 98° (E) 02:51:00 436.795 MHz FM
Gurwin Techsat 1B 16 Sep 03:10:54 03:15:48 36° 97° (E) 03:20:40 435.225 FM
Oscar 16 16 Sep 03:11:47 03:16:47 48° 290° (WNW) 03:21:43 437.025 USB, Beacon 2401.1428
JAS-1B 16 Sep 03:16:50 03:22:47 81° 104° (ESE) 03:28:27 435.800 - 435.900 CW/SSB
OPAL 16 Sep 03:20:35 03:24:24 21° 59° (ENE) 03:28:15 ?
AO-7 16 Sep 03:45:56 03:51:10 18° 89° (E) 03:56:23 29.400 - 29.500 MHz
ITAMSAT 1 16 Sep 03:46:38 03:51:43 55° 289° (WNW) 03:56:48 435.822 SSB
TMSAT-1 16 Sep 03:50:24 03:55:40 61° 101° (E) 04:00:54 436.925 FM
Uribyol 2 16 Sep 03:51:59 03:56:58 47° 291° (WNW) 04:01:57 436.500 FM
ISS 16 Sep 03:52:11 03:54:54 24° 137° (SE) 03:57:38 145.800 FM
AO-Echo 16 Sep 03:57:38 04:01:57 35° 292° (WNW) 04:06:21 ?
UOSAT-12 16 Sep 03:59:36 04:01:31 12° 332° (NNW) 04:03:26 437.025 FM, 437.400 FM
Saudisat 1A 16 Sep 04:03:26 04:07:09 27° 246° (WSW) 04:10:50 436.775 MHz
Oscar 19 16 Sep 04:14:21 04:17:25 16° 301° (WNW) 04:20:27 437.125 CW, 437.150 USB
KITSAT 1 16 Sep 04:16:52 04:24:31 43° 45° (NE) 04:32:06 435.175 FM
AO-27 16 Sep 04:21:04 04:25:28 28° 295° (WNW) 04:29:52 436.795 MHz FM
RS-15 16 Sep 04:36:43 04:47:04 49° 111° (ESE) 04:57:17 29.354 - 29.394 USB, Beacon 29.352 USB
Gurwin Techsat 1B 16 Sep 04:51:02 04:55:41 32° 294° (WNW) 05:00:19 435.225 FM
OPAL 16 Sep 04:57:45 05:02:50 59° 257° (WSW) 05:08:00 ?
Uosat F 16 Sep 05:03:41 05:08:36 52° 100° (E) 05:13:30 435.120 FM
JAS-1B 16 Sep 05:09:14 05:12:37 16° 306° (NW) 05:15:55 435.800 - 435.900 CW/SSB
ISS 16 Sep 05:28:10 05:31:26 53° 334° (NNW) 05:34:43 145.800 FM
TMSAT-1 16 Sep 05:31:20 05:35:08 20° 299° (WNW) 05:38:54 436.925 FM
STRAND 1 16 Sep 05:33:55 05:37:33 20° 61° (ENE) 05:41:11 ?
Oscar 10/S400 16 Sep 05:34:54 05:51:23 10° 257° (WSW) 06:10:33 145.825 - 145.975 CW/USB, Beacon 145.810 USB
Hamsat 16 Sep 05:36:33 05:38:14 12° 89° (E) 05:39:54 145.90 MHz
AO-7 16 Sep 05:36:45 05:45:06 85° 108° (ESE) 05:53:24 29.400 - 29.500 MHz
KITSAT 1 16 Sep 06:12:21 06:20:07 53° 246° (WSW) 06:27:50 435.175 FM
JAS-2 16 Sep 06:38:01 06:43:46 60° 101° (ESE) 06:50:14 435.800 - 435.900 CW/SSB, 435.910 FM
Uosat F 16 Sep 06:43:17 06:47:02 22° 298° (WNW) 06:50:46 435.120 FM
RS-15 16 Sep 06:48:31 06:59:16 56° 315° (NW) 07:10:01 29.354 - 29.394 USB, Beacon 29.352 USB
SO-50 16 Sep 07:04:55 07:09:04 28° 43° (NE) 07:13:15 436.795 FM
ISS 16 Sep 07:05:56 07:08:40 23° 354° (N) 07:11:24 145.800 FM
Hamsat 16 Sep 07:10:24 07:14:39 64° 286° (WNW) 07:18:50 145.90 MHz
STRAND 1 16 Sep 07:11:19 07:16:18 58° 259° (W) 07:21:21 ?
AO-7 16 Sep 07:30:38 07:36:59 25° 309° (NW) 07:43:19 29.400 - 29.500 MHz
SO-67 16 Sep 08:11:09 08:14:38 82° 284° (WNW) 08:18:04 435.3500 MHz FM
JAS-2 16 Sep 08:24:05 08:28:33 24° 297° (WNW) 08:33:23 435.800 - 435.900 CW/SSB, 435.910 FM
HO-68 16 Sep 08:42:32 08:47:39 20° 91° (E) 08:52:43 435.675 MHz FM
ISS 16 Sep 08:43:11 08:46:06 27° 14° (NNE) 08:49:02 145.800 FM
SO-50 16 Sep 08:45:13 08:49:50 48° 241° (WSW) 08:54:30 436.795 FM
MaSat-1 16 Sep 08:53:56 08:58:28 35° 108° (ESE) 09:02:59 437.345 MHz
UOSAT-12 16 Sep 09:04:02 09:08:20 33° 45° (NE) 09:12:34 437.025 FM, 437.400 FM
RS-15 16 Sep 09:05:50 09:14:42 27° 347° (NNW) 09:23:40 29.354 - 29.394 USB, Beacon 29.352 USB
Oscar 11 16 Sep 10:06:14 10:10:07 31° 96° (E) 10:13:59 145.825 FM, Beacon 2401.500 USB
UKube-1 16 Sep 10:18:52 10:23:10 57° 101° (E) 10:27:27 145.840 MHz, 145.915 MHz
ISS 16 Sep 10:19:46 10:23:07 81° 214° (SW) 10:26:26 145.800 FM
HO-68 16 Sep 10:28:53 10:36:05 79° 289° (WNW) 10:43:15 435.675 MHz FM
MaSat-1 16 Sep 10:30:38 10:35:17 35° 306° (NW) 10:39:50 437.345 MHz
UOSAT-12 16 Sep 10:44:10 10:48:31 37° 244° (WSW) 10:52:47 437.025 FM, 437.400 FM
FUNcube-1 16 Sep 11:21:34 11:26:14 83° 103° (ESE) 11:30:51 145.950 - 145.970 MHz USB
RS-15 16 Sep 11:22:16 11:31:40 31° 22° (NNE) 11:41:15 29.354 - 29.394 USB, Beacon 29.352 USB
Oscar 11 16 Sep 11:42:34 11:46:12 26° 293° (WNW) 11:49:48 145.825 FM, Beacon 2401.500 USB
UKube-1 16 Sep 11:56:18 11:58:56 16° 298° (WNW) 12:01:33 145.840 MHz, 145.915 MHz
ISS 16 Sep 11:58:14 11:59:20 11° 229° (SW) 12:00:26 145.800 FM
Sapphire 16 Sep 12:11:23 12:15:02 19° 105° (ESE) 12:18:42 437.095 MHz 1200 baud AX-25 AFSK
JAS-1B 16 Sep 12:14:32 12:19:53 19° 56° (NE) 12:24:44 435.800 - 435.900 CW/SSB
Oscar 19 16 Sep 12:14:45 12:18:15 19° 60° (ENE) 12:21:47 437.125 CW, 437.150 USB
HO-68 16 Sep 12:18:15 12:22:43 18° 309° (NW) 12:27:11 435.675 MHz FM
AO-27 16 Sep 12:26:15 12:27:25 11° 54° (NE) 12:28:34 436.795 MHz FM
PCSat 16 Sep 12:37:23 12:42:11 34° 111° (ESE) 12:47:01 145.825 MHz
Oscar 16 16 Sep 12:51:20 12:56:06 38° 68° (ENE) 13:00:54 437.025 USB, Beacon 2401.1428
Gurwin Techsat 1B 16 Sep 12:59:04 12:59:43 10° 54° (NE) 13:00:21 435.225 FM
FUNcube-1 16 Sep 12:59:59 13:01:57 13° 300° (WNW) 13:03:55 145.950 - 145.970 MHz USB
ITAMSAT 1 16 Sep 13:27:24 13:32:03 35° 67° (ENE) 13:36:44 435.822 SSB
Uribyol 2 16 Sep 13:32:20 13:37:09 41° 68° (ENE) 13:42:00 436.500 FM
AO-Echo 16 Sep 13:33:35 13:38:04 42° 70° (ENE) 13:42:30 ?
RS-15 16 Sep 13:35:14 13:46:20 72° 51° (NE) 13:57:50 29.354 - 29.394 USB, Beacon 29.352 USB
TMSAT-1 16 Sep 13:35:35 13:38:46 16° 59° (ENE) 13:41:58 436.925 FM
Oscar 19 16 Sep 13:51:56 13:57:05 65° 258° (WSW) 14:02:17 437.125 CW, 437.150 USB
Sapphire 16 Sep 13:52:31 13:57:54 68° 304° (WNW) 14:03:19 437.095 MHz 1200 baud AX-25 AFSK
JAS-1B 16 Sep 14:00:50 14:09:42 82° 73° (ENE) 14:17:06 435.800 - 435.900 CW/SSB
AO-27 16 Sep 14:00:51 14:05:59 71° 73° (ENE) 14:11:10 436.795 MHz FM
PCSat 16 Sep 14:20:26 14:25:31 40° 310° (NW) 14:30:38 145.825 MHz
Oscar 16 16 Sep 14:31:04 14:35:32 29° 265° (W) 14:40:01 437.025 USB, Beacon 2401.1428
Gurwin Techsat 1B 16 Sep 14:33:25 14:38:40 66° 72° (ENE) 14:43:57 435.225 FM
Uosat F 16 Sep 14:43:29 14:45:25 12° 56° (ENE) 14:47:22 435.120 FM
AO-7 16 Sep 14:46:16 14:53:18 32° 55° (NE) 15:00:20 29.400 - 29.500 MHz
ITAMSAT 1 16 Sep 15:07:01 15:11:33 31° 264° (W) 15:16:08 435.822 SSB
Uribyol 2 16 Sep 15:12:27 15:16:45 26° 266° (W) 15:21:06 436.500 FM
TMSAT-1 16 Sep 15:12:46 15:18:03 77° 257° (WSW) 15:23:22 436.925 FM
AO-Echo 16 Sep 15:13:21 15:17:01 22° 266° (W) 15:20:41 ?
Oscar 10/S400 16 Sep 15:14:21 15:28:34 22° 145° (SE) 15:44:06 145.825 - 145.975 CW/USB, Beacon 145.810 USB
Sapphire 16 Sep 15:39:14 15:42:23 15° 325° (NW) 15:45:32 437.095 MHz 1200 baud AX-25 AFSK
AO-27 16 Sep 15:43:05 15:46:02 15° 270° (W) 15:48:59 436.795 MHz FM
RS-15 16 Sep 15:48:18 15:57:54 35° 253° (WSW) 16:07:51 29.354 - 29.394 USB, Beacon 29.352 USB
JAS-1B 16 Sep 15:54:19 16:00:43 22° 268° (W) 16:06:30 435.800 - 435.900 CW/SSB
PCSat 16 Sep 16:09:24 16:10:31 11° 333° (NNW) 16:11:38 145.825 MHz
Gurwin Techsat 1B 16 Sep 16:15:44 16:19:07 17° 270° (W) 16:22:31 435.225 FM
Uosat F 16 Sep 16:18:25 16:23:25 84° 74° (ENE) 16:28:27 435.120 FM
Hamsat 16 Sep 16:31:56 16:33:42 12° 61° (ENE) 16:35:28 145.90 MHz
AO-7 16 Sep 16:37:17 16:45:33 67° 255° (WSW) 16:53:50 29.400 - 29.500 MHz
JAS-2 16 Sep 16:53:43 16:58:04 27° 65° (ENE) 17:02:21 435.800 - 435.900 CW/SSB, 435.910 FM
OPAL 16 Sep 17:06:26 17:11:04 32° 98° (E) 17:15:38 ?
MaSat-1 16 Sep 17:10:48 17:12:12 11° 40° (NE) 17:13:33 437.345 MHz
Uosat F 16 Sep 18:01:04 18:02:51 12° 272° (W) 18:04:38 435.120 FM
Hamsat 16 Sep 18:04:41 18:09:03 76° 258° (WSW) 18:13:26 145.90 MHz
Saudisat 1A 16 Sep 18:10:27 18:14:44 53° 120° (ESE) 18:19:03 436.775 MHz
AO-7 16 Sep 18:36:46 18:39:52 12° 275° (W) 18:42:59 29.400 - 29.500 MHz
JAS-2 16 Sep 18:38:05 18:43:04 39° 262° (W) 18:47:55 435.800 - 435.900 CW/SSB, 435.910 FM
OPAL 16 Sep 18:45:15 18:49:56 35° 296° (WNW) 18:54:34 ?
SO-67 16 Sep 18:45:27 18:48:41 38° 73° (ENE) 18:51:56 435.3500 MHz FM
MaSat-1 16 Sep 18:45:47 18:49:51 89° 56° (NE) 18:53:17 437.345 MHz
KITSAT 1 16 Sep 18:49:33 18:54:58 20° 102° (ESE) 19:00:23 435.175 FM
HO-68 16 Sep 19:13:53 19:18:48 21° 53° (NE) 19:23:43 435.675 MHz FM
STRAND 1 16 Sep 19:20:20 19:25:13 42° 99° (E) 19:30:04 ?
PCSat 16 Sep 19:42:19 19:43:23 11° 27° (NNE) 19:44:27 145.825 MHz
Saudisat 1A 16 Sep 19:51:05 19:54:36 23° 319° (NW) 19:58:09 436.775 MHz
SO-67 16 Sep 20:20:16 20:21:54 13° 269° (W) 20:23:33 435.3500 MHz FM
KITSAT 1 16 Sep 20:41:10 20:49:17 89° 121° (ESE) 20:57:26 435.175 FM
Sapphire 16 Sep 20:56:09 21:00:38 25° 44° (NE) 21:05:06 437.095 MHz 1200 baud AX-25 AFSK
HO-68 16 Sep 20:58:26 21:05:35 90° 70° (ENE) 21:12:47 435.675 MHz FM
STRAND 1 16 Sep 20:59:58 21:04:11 27° 296° (WNW) 21:08:24 ?
Oscar 11 16 Sep 21:02:46 21:06:35 30° 68° (ENE) 21:10:25 145.825 FM, Beacon 2401.500 USB
UKube-1 16 Sep 21:15:41 21:19:57 60° 73° (ENE) 21:24:14 145.840 MHz, 145.915 MHz
PCSat 16 Sep 21:23:17 21:28:23 40° 50° (NE) 21:33:28 145.825 MHz
FUNcube-1 16 Sep 22:19:15 22:23:36 79° 76° (ENE) 22:28:07 145.950 - 145.970 MHz USB
KITSAT 1 16 Sep 22:38:56 22:45:45 29° 325° (NW) 22:52:36 435.175 FM
Oscar 11 16 Sep 22:39:04 22:42:45 27° 265° (W) 22:46:28 145.825 FM, Beacon 2401.500 USB
Sapphire 16 Sep 22:39:07 22:44:29 61° 244° (WSW) 22:49:48 437.095 MHz 1200 baud AX-25 AFSK
HO-68 16 Sep 22:49:50 22:54:12 17° 271° (W) 22:58:37 435.675 MHz FM
UKube-1 16 Sep 22:54:25 22:56:32 13° 269° (W) 22:58:40 145.840 MHz, 145.915 MHz
SO-50 16 Sep 23:01:37 23:05:46 39° 117° (ESE) 23:10:01 436.795 FM
PCSat 16 Sep 23:06:53 23:11:43 34° 249° (WSW) 23:16:32 145.825 MHz
